Fort Yukon, AK

10:55 AM AKDT on June 26, 2017 (GMT -0800)
Fort Yukon

Weather History for PFYU - August, 2014

Change the Weather History Date:

Thursday, August 21, 2014

  Actual Average Record
Temperature  
Mean Temperature 58 °F -  
Max Temperature 64 °F 58 °F 73 °F (2004)
Min Temperature 51 °F 41 °F 33 °F (1996)
Degree Days  
Heating Degree Days 8    
Growing Degree Days 8 (Base 50)    
Moisture  
Dew Point 48 °F    
Average Humidity 74    
Maximum Humidity 94    
Minimum Humidity 53    
Precipitation  
Precipitation 0.00 in - - ()
Sea Level Pressure  
Sea Level Pressure 30.15 in    
Wind  
Wind Speed 4 mph (SW)    
Max Wind Speed 8 mph    
Max Gust Speed -    
Visibility 10 miles    
Events      
Averages and records for this station are not official NWS values.
T = Trace of Precipitation, MM = Missing Value Source: NWS Daily Summary

Daily Weather History Graph

Daily Weather History Graph

Search for Another Location

Airport or City:

Trip Planner

Search our weather history database for the weather conditions in past years. The results will help you decide how hot, cold, wet, or windy it might be!

Date:

Astronomy

Aug. 21, 2014 Rise Set
Actual Time 5:36 AM AKDT 9:49 PM AKDT
Civil Twilight 4:26 AM AKDT 10:58 PM AKDT
Nautical Twilight 2:16 AM AKDT 1:11 AM AKDT
Astronomical Twilight Sun does not set Sun does not set
Moon 1:23 AM AKDT (8/21) 8:02 PM AKDT (8/21)
Length of Visible Light 18h 32m
Length of Day
16h 12m
Waning Crescent, 12% of the Moon is Illuminated
Aug 21
Waning Crescent
Aug 25
New
Sep 2
First Quarter
Sep 8
Full
Sep 15
Last Quarter

Hourly Weather History & Observations

Time (AKDT) Temp. Dew Point Humidity Pressure Visibility Wind Dir Wind Speed Gust Speed Precip Events Conditions
12:16 AM 55.4 °F 51.8 °F 88% 30.09 in 10.0 mi Calm Calm - N/A   Mostly Cloudy
12:36 AM 55.4 °F 51.8 °F 88% 30.09 in 10.0 mi SW 3.5 mph - N/A   Mostly Cloudy
12:56 AM 53.6 °F 51.8 °F 94% 30.09 in 10.0 mi SW 3.5 mph - N/A   Scattered Clouds
1:16 AM 53.6 °F 51.8 °F 94% 30.09 in 10.0 mi Calm Calm - N/A   Mostly Cloudy
1:36 AM 53.6 °F 51.8 °F 94% 30.10 in 10.0 mi Calm Calm - N/A   Mostly Cloudy
1:56 AM 53.6 °F 51.8 °F 94% 30.10 in 10.0 mi Calm Calm - N/A   Mostly Cloudy
2:16 AM 53.6 °F 51.8 °F 94% 30.11 in 10.0 mi SW 4.6 mph - N/A   Overcast
2:36 AM 55.4 °F 51.8 °F 88% 30.11 in 10.0 mi West 3.5 mph - N/A   Overcast
3:16 AM 55.4 °F 50.0 °F 82% 30.12 in 10.0 mi SW 3.5 mph - N/A   Overcast
3:36 AM 53.6 °F 51.8 °F 94% 30.12 in 10.0 mi Calm Calm - N/A   Mostly Cloudy
4:16 AM 53.6 °F 50.0 °F 88% 30.12 in 10.0 mi WSW 4.6 mph - N/A   Mostly Cloudy
4:36 AM 53.6 °F 51.8 °F 94% 30.13 in 10.0 mi SW 3.5 mph - N/A   Mostly Cloudy
4:56 AM 53.6 °F 51.8 °F 94% 30.13 in 10.0 mi SW 3.5 mph - N/A   Scattered Clouds
5:16 AM 53.6 °F 50.0 °F 88% 30.13 in 10.0 mi Calm Calm - N/A   Scattered Clouds
5:36 AM 53.6 °F 50.0 °F 88% 30.13 in 10.0 mi WSW 5.8 mph - N/A   Mostly Cloudy
5:56 AM 53.6 °F 50.0 °F 88% 30.14 in 10.0 mi WSW 4.6 mph - N/A   Overcast
6:16 AM 53.6 °F 48.2 °F 82% 30.14 in 10.0 mi SW 4.6 mph - N/A   Scattered Clouds
6:36 AM 53.6 °F 48.2 °F 82% 30.14 in 10.0 mi SW 3.5 mph - N/A   Scattered Clouds
6:56 AM 51.8 °F 48.2 °F 88% 30.14 in 10.0 mi Calm Calm - N/A   Partly Cloudy
7:16 AM 53.6 °F 48.2 °F 82% 30.14 in 10.0 mi SW 3.5 mph - N/A   Mostly Cloudy
7:36 AM 53.6 °F 48.2 °F 82% 30.14 in 10.0 mi WSW 4.6 mph - N/A   Overcast
8:16 AM 53.6 °F 48.2 °F 82% 30.15 in 10.0 mi WSW 3.5 mph - N/A   Mostly Cloudy
8:36 AM 53.6 °F 48.2 °F 82% 30.15 in 10.0 mi WSW 3.5 mph - N/A   Partly Cloudy
8:56 AM 53.6 °F 48.2 °F 82% 30.15 in 10.0 mi SW 4.6 mph - N/A   Partly Cloudy
9:16 AM 55.4 °F 48.2 °F 77% 30.16 in 10.0 mi WSW 5.8 mph - N/A   Partly Cloudy
9:36 AM 57.2 °F 50.0 °F 77% 30.15 in 10.0 mi WSW 6.9 mph - N/A   Clear
9:56 AM 57.2 °F 50.0 °F 77% 30.16 in 10.0 mi WSW 5.8 mph - N/A   Partly Cloudy
10:16 AM 57.2 °F 51.8 °F 82% 30.16 in 10.0 mi WSW 6.9 mph - N/A   Mostly Cloudy
10:17 AM 57.2 °F 50.0 °F 77% 30.16 in 10.0 mi SSW 5.8 mph - N/A   Mostly Cloudy
10:36 AM 57.2 °F 50.0 °F 77% 30.17 in 10.0 mi WSW 5.8 mph - N/A   Overcast
10:45 AM 57.2 °F 50.0 °F 77% 30.17 in 10.0 mi SW 6.9 mph - N/A   Overcast
10:56 AM 57.2 °F 50.0 °F 77% 30.17 in 10.0 mi WSW 5.8 mph - N/A   Overcast
11:36 AM 57.2 °F 48.2 °F 72% 30.17 in 10.0 mi SW 4.6 mph - N/A   Overcast
11:56 AM 59.0 °F 48.2 °F 67% 30.17 in 10.0 mi WSW 4.6 mph - N/A   Overcast
12:16 PM 60.8 °F 48.2 °F 63% 30.17 in 10.0 mi WSW 6.9 mph - N/A   Mostly Cloudy
1:56 PM 57.2 °F 53.6 °F 88% 30.17 in 10.0 mi WSW 6.9 mph - N/A   Scattered Clouds
2:36 PM 60.8 °F 51.8 °F 72% 30.17 in 10.0 mi SW 6.9 mph - N/A   Scattered Clouds
2:56 PM 62.6 °F 48.2 °F 59% 30.17 in 10.0 mi WSW 5.8 mph - N/A   Partly Cloudy
3:16 PM 62.6 °F 48.2 °F 59% 30.16 in 10.0 mi SW 8.1 mph - N/A   Mostly Cloudy
3:36 PM 62.6 °F 48.2 °F 59% 30.17 in 10.0 mi WSW 8.1 mph - N/A   Mostly Cloudy
3:56 PM 60.8 °F 48.2 °F 63% 30.17 in 10.0 mi WSW 4.6 mph - N/A   Mostly Cloudy
4:16 PM 60.8 °F 46.4 °F 59% 30.17 in 10.0 mi WSW 6.9 mph - N/A   Mostly Cloudy
4:36 PM 60.8 °F 46.4 °F 59% 30.17 in 10.0 mi WSW 5.8 mph - N/A   Mostly Cloudy
4:56 PM 62.6 °F 46.4 °F 55% 30.16 in 10.0 mi WSW 3.5 mph - N/A   Mostly Cloudy
5:16 PM 62.6 °F 48.2 °F 59% 30.16 in 10.0 mi WSW 5.8 mph - N/A   Scattered Clouds
5:36 PM 60.8 °F 46.4 °F 59% 30.16 in 10.0 mi West 6.9 mph - N/A   Mostly Cloudy
5:56 PM 60.8 °F 46.4 °F 59% 30.16 in 10.0 mi West 6.9 mph - N/A   Overcast
6:16 PM 60.8 °F 44.6 °F 55% 30.17 in 10.0 mi WSW 8.1 mph - N/A   Overcast
6:36 PM 60.8 °F 46.4 °F 59% 30.16 in 10.0 mi WSW 5.8 mph - N/A   Overcast
6:56 PM 59.0 °F 44.6 °F 59% 30.16 in 10.0 mi West 8.1 mph - N/A   Overcast
7:16 PM 59.0 °F 44.6 °F 59% 30.16 in 10.0 mi WSW 4.6 mph - N/A   Overcast
7:36 PM 59.0 °F 44.6 °F 59% 30.16 in 10.0 mi WSW 5.8 mph - N/A   Overcast
7:56 PM 59.0 °F 46.4 °F 63% 30.16 in 10.0 mi WSW 4.6 mph - N/A   Overcast
8:16 PM 59.0 °F 46.4 °F 63% 30.16 in 10.0 mi WSW 3.5 mph - N/A   Overcast
8:36 PM 57.2 °F 48.2 °F 72% 30.16 in 10.0 mi Calm Calm - N/A   Overcast
8:56 PM 57.2 °F 48.2 °F 72% 30.16 in 10.0 mi WSW 4.6 mph - N/A   Overcast
9:16 PM 57.2 °F 46.4 °F 67% 30.16 in 10.0 mi SW 3.5 mph - N/A   Mostly Cloudy
9:36 PM 55.4 °F 44.6 °F 67% 30.16 in 10.0 mi SW 3.5 mph - N/A   Scattered Clouds
9:56 PM 55.4 °F 44.6 °F 67% 30.16 in 10.0 mi SSW 3.5 mph - N/A   Mostly Cloudy
10:16 PM 55.4 °F 46.4 °F 72% 30.16 in 10.0 mi SSW 3.5 mph - N/A   Overcast
10:36 PM 55.4 °F 44.6 °F 67% 30.17 in 10.0 mi SSW 3.5 mph - N/A   Overcast
10:56 PM 55.4 °F 46.4 °F 72% 30.17 in 10.0 mi SSW 3.5 mph - N/A   Overcast
11:16 PM 55.4 °F 46.4 °F 72% 30.17 in 10.0 mi SSW 3.5 mph - N/A   Overcast
11:36 PM 55.4 °F 46.4 °F 72% 30.17 in 10.0 mi SSW 4.6 mph - N/A   Overcast
11:56 PM 55.4 °F 46.4 °F 72% 30.17 in 10.0 mi Calm Calm - N/A   Overcast